Showing default

TANSAT, 41898

Orbit data source: Space-Track

TANSAT, 41898 is a Chinese payload satellite in SSO that was launched on Wed, 21 Dec 2016 UTC via a CHANG ZHENG 2D launch vehicle from the Jiuquan Satellite Launch Center, China (JSC). Payload-class satellites include a variety of spacecraft equipped with specific instruments for various scientific and technological missions. These include communications satellites like Starlink; space stations such as the ISS; scientific satellites like the Hubble; Earth observation satellites from companies like Planet Labs, Umbra, and HawkEye 360; GPS; miniature CubeSats for education and research; and military/defense satellites.

Loading next visibility...
Identifier
41898, 2016-081A
Orbit
SSO
Country
Flag of CNCN / PRC
Related business
Manufacturer
SECM
Mission
Operational Civil Earth Obs Sci
Bus & Motor
TANSAT, Unknown motor
Mass
~620 kg wet, ~600 kg dry
Launch date (UTC)
2016-12-21 (9 years ago)
Launch vehicle
CHANG ZHENG 2D
Launch site
Jiuquan Satellite Launch Center, China (JSC)
Object type
Payload
Rocket body
Debris
Shape & HBR
Box + 2 Pan, 5.0 m
Radar Cross Section
7.261 m², Large (>1 m²)

Expand to show TLE details & history
Last TLE update: 23 hours ago

TLE from 23 hours ago
0 TANSAT
1 41898U 16081A   25312.89125362  .00000565  00000-0  12883-3 0  9996
2 41898  98.5264 301.8145 0019374 270.0632  89.8347 14.59735369472488
Epoch: 2025-11-08T21:23Z
TLE epoch observation values (Epoch: 2025-11-08T21:23:24.312Z)
Latitude
-0.00002°
Longitude
-67.35116°
Altitude
696.99 km
Speed
7.508 km/s
True Right ascension
20h 07m 15s
True Declination
0° 00' 00"
Sunlit
Object was in daylight at epoch
Visualization orbit readout
Latitude
Unknown
Longitude
Unknown
Altitude
Unknown
Speed
Unknown
Apparent Right ascension
Unknown
Apparent Declination
Unknown
Sunlit
N/A
Visualization observer readout
Local Sidereal Time
16:18:02
Azimuth
Unknown
Elevation
Unknown
Doppler factor
Unknown
Orbital elements
Apogee altitude
704.821 km
Perigee altitude
677.429 km
Semi-major axis
7,069.262 km
Eccentricity
0.00194
Inclination
98.5264°
RAAN
301.8145°
Arg. of periapsis
270.0632°
True anomaly
90.05671°
Mean anomaly
89.8347°
Eccentric anomaly
89.9457°
Mean motion
3.65159 °/min
Orbital period
98.59 mins
BSTAR
0.00012883
Loading maneuver chart data...
Computing Atmospheric mass density...
Loading historical data...
Loading historical data...
Loading historical data...
Loading historical data...
Loading historical data...
Loading historical data...
Loading historical data...
Other satellites on launch #81 in the year 2016 (2016-12-21 UTC)

Documentation

Showing up to 5 results
|